#timestamp,LO_Frequency,Hit,StdDev 
1611946815.4,286047003.3,N
1611946835.3,286046999.8,N
1611946855.1,286046996.6,N
1611946875.8,286046997.9,N
1611946895.7,286046993.8,N
1611946915.5,286046998.0,N
1611946935.4,286046993.4,N
1611946955.2,286046992.7,N
1611946975.0,286046993.3,N
1611946975.9,286046993.3,N
1611946995.8,286046996.9,N
1611947015.6,286046999.0,N
1611947035.5,286046997.5,N
1611947055.3,286046996.7,N
1611947075.1,286047002.4,N
1611947095.9,286047000.9,N
1611947115.7,286047000.1,N
1611947135.5,286046999.9,N
1611947155.4,286046997.6,N
1611947175.2,286047000.9,N
1611947195.1,286047000.1,N
1611947196.0,286047000.1,N
1611947215.8,286046999.8,N
1611947235.6,286047000.1,N
1611947255.5,286046996.4,N
1611947275.3,286046991.7,N
1611947295.2,286046995.9,N
1611947315.9,286046995.9,N
1611947335.7,286046992.8,N
1611947355.6,286046991.2,N
1611947375.4,286046990.5,N
1611947395.2,286046994.3,N
1611947415.1,286046991.2,N
1611947416.0,286046991.2,N
1611947435.8,286046991.1,N
1611947455.7,286046997.9,N
1611947475.5,286046994.0,N
1611947495.3,286046996.1,N
1611947515.2,286046993.6,N
1611947535.0,286046994.1,N
1611947535.9,286046994.1,N
1611947555.8,286046991.2,N
1611947575.6,286046988.0,Y
1611947595.4,286046988.9,P
1611947615.3,286046988.4,P
1611947635.1,286046987.2,P
1611947655.9,286046987.5,Y
1611947675.7,286046996.6,P
1611947695.5,286047000.9,N
1611947715.4,286046998.4,N
1611947735.2,286046996.3,N
1611947755.0,286046992.3,N
1611947755.9,286046992.3,N
1611947775.8,286046988.7,Y
1611947795.6,286046990.7,P
1611947815.5,286046985.3,P
1611947835.3,286046983.9,P
1611947855.1,286046984.5,Y
1611947875.9,286046997.7,P
1611947895.7,286046998.0,N
1611947915.6,286046996.8,N
1611947935.4,286046996.7,N
1611947955.2,286046999.2,N
1611947975.1,286046996.6,N
1611947976.0,286046996.6,N
1611947995.8,286047000.7,N
1611948015.6,286047002.4,N
1611948035.5,286047000.8,N
1611948055.3,286046998.9,N
1611948075.2,286046998.8,N
1611948095.9,286046999.2,N
1611948115.7,286046996.5,N
1611948135.6,286046999.3,N
1611948155.4,286046996.5,N
1611948175.3,286046998.8,N
1611948195.1,286047002.7,N
1611948196.0,286047002.7,N
1611948215.8,286047003.8,N
1611948235.7,286047002.3,N
1611948255.5,286046998.1,N
1611948275.3,286046999.2,N
1611948295.2,286047002.0,N
1611948315.0,286047003.6,N
1611948315.9,286047003.6,N
1611948335.8,286047004.1,N
1611948355.6,286047007.1,N
1611948375.4,286047009.9,N
1611948395.3,286047010.8,N
1611948415.1,286047010.5,N
1611948435.9,286047013.8,Y
1611948455.7,286047013.6,P
1611948475.5,286047011.3,N
1611948495.4,286047009.6,N
1611948515.2,286047012.1,N
1611948535.0,286047012.1,N
1611948535.9,286047012.1,N
1611948555.8,286047012.3,Y
1611948575.6,286046998.9,P
1611948595.5,286046996.7,N
1611948615.3,286047000.4,N
1611948635.1,286046998.7,N
1611948655.9,286047001.6,N
1611948675.7,286047006.4,N
1611948695.6,286047010.0,N
1611948715.4,286047012.1,N
1611948735.2,286047013.1,N
1611948755.1,286047011.2,N
1611948756.0,286047011.2,N
1611948775.8,286047011.6,N
1611948795.7,286047012.8,N
1611948815.5,286047012.8,N
1611948835.3,286047013.4,N
1611948855.2,286047011.1,N
1611948875.0,286047008.9,N
1611948875.9,286047008.9,N
1611948895.7,286047007.6,N
1611948915.6,286047004.9,N
1611948935.4,286047005.3,N
1611948955.3,286047007.2,N
1611948975.1,286047003.7,N
1611948976.0,286047003.7,N
1611948995.8,286047007.5,N
1611949015.7,286047010.3,N
1611949035.5,286047011.7,N
1611949055.4,286047013.4,N
1611949075.2,286047015.1,Y
1611949095.0,286047007.4,P
1611949095.9,286047007.4,P
1611949115.8,286047007.1,P
1611949135.6,286047006.6,Y
1611949155.4,286047000.1,P
1611949175.3,286046999.0,N
1611949195.1,286046999.3,N
1611949215.9,286046998.1,N
1611949235.7,286046999.7,N
1611949255.5,286047002.6,N
1611949275.4,286047002.6,N
1611949295.2,286047002.0,N
1611949315.1,286047002.2,N
1611949316.0,286047002.2,N
1611949335.8,286046998.6,N
1611949355.6,286046996.5,N
1611949375.5,286047000.9,N
1611949395.3,286047002.1,N
1611949415.1,286047001.8,N
1611949435.9,286047001.5,N
1611949455.7,286047002.4,N
1611949475.6,286047000.5,N
1611949495.4,286046999.9,N
1611949515.2,286046998.6,N
1611949535.1,286046999.1,N
1611949536.0,286046999.1,N
1611949555.8,286046997.1,N
1611949575.7,286046995.3,N
1611949595.5,286046988.7,Y
1611949615.3,286046985.8,P
1611949635.2,286046985.4,N
1611949655.0,286046985.8,N
1611949655.9,286046985.8,N
1611949675.8,286046988.9,N
1611949695.6,286046987.5,N
1611949715.4,286046986.4,N
1611949735.3,286046988.4,N
1611949755.1,286046988.2,N
1611949775.8,286046986.5,Y
1611949795.7,286046995.0,P
1611949815.5,286046996.6,N
1611949835.4,286046998.0,N
1611949855.2,286046996.4,N
1611949875.0,286046993.6,N
1611949875.9,286046993.6,N
1611949895.8,286046993.8,N
1611949915.6,286046990.2,Y
1611949935.5,286046997.8,P
1611949955.3,286046995.3,N
1611949975.1,286047000.9,N
1611949995.9,286047000.2,N
1611950015.7,286047003.8,N
1611950035.5,286047005.6,N
1611950055.4,286047009.1,N
1611950075.2,286047006.3,N
1611950095.1,286047009.6,N
1611950096.0,286047009.6,N
1611950115.8,286047011.7,N
1611950135.6,286047015.4,N
1611950155.5,286047017.2,N
1611950175.3,286047016.8,N
1611950195.2,286047016.7,N
1611950215.9,286047015.9,N
1611950235.7,286047015.4,N
1611950255.6,286047015.2,N
1611950275.4,286047017.2,N
1611950295.2,286047013.2,N
1611950315.1,286047010.6,N
1611950316.0,286047010.6,N
1611950335.8,286047010.3,N
1611950355.7,286047006.3,N
1611950375.5,286047003.3,N
1611950395.3,286047004.3,N
